GPS BIIR-2 (PRN 13)

Last updated on Sun Apr 12 2026 00:03:23 GMT+0000 (Coordinated Universal Time)

1 24876U 97035A 26100.39473836 .00000060 00000+0 00000+0 0 9997 2 24876 55.9579 101.2240 0099205 56.1428 304.8237 2.00563995210593

Satellite not in orbit

GPS BIIR-2 (PRN 13)